�������l�o���
Date,Time,MP-1(��Sv/h),MP-2(��Sv/h),MP-3(��Sv/h),MP-4(��Sv/h),MP-5(��Sv/h),MP-6(��Sv/h),MP-7(��Sv/h),MP-8(��Sv/h),����,����(m/s),���J
2022/03/03,00:00,0.589,0.879,0.555,1.073,0.764,0.352,0.613,0.577,���k��,0.8,��
2022/03/03,00:10,0.587,0.876,0.554,1.074,0.763,0.352,0.612,0.577,�k�k��,1.4,��
2022/03/03,00:20,0.588,0.878,0.555,1.072,0.764,0.353,0.611,0.577,�k,1.7,��
2022/03/03,00:30,0.588,0.877,0.554,1.076,0.764,0.352,0.613,0.576,�k,2.6,��
2022/03/03,00:40,0.588,0.877,0.555,1.071,0.764,0.353,0.611,0.576,�k,2.3,��
2022/03/03,00:50,0.588,0.877,0.553,1.071,0.765,0.352,0.612,0.577,�k�k��,2.8,��
2022/03/03,01:00,0.590,0.878,0.556,1.071,0.763,0.354,0.611,0.578,�k�k��,1.4,��
2022/03/03,01:10,0.588,0.879,0.552,1.072,0.765,0.353,0.611,0.577,�k��,0.9,��
2022/03/03,01:20,0.588,0.877,0.554,1.074,0.763,0.352,0.612,0.576,�k��,1.2,��
2022/03/03,01:30,0.589,0.878,0.555,1.073,0.762,0.351,0.610,0.577,���k��,1.1,��
2022/03/03,01:40,0.588,0.879,0.554,1.072,0.765,0.353,0.610,0.577,���쐼,0.8,��
2022/03/03,01:50,0.586,0.877,0.553,1.074,0.762,0.352,0.611,0.577,��,0.6,��
2022/03/03,02:00,0.589,0.879,0.554,1.073,0.763,0.351,0.611,0.578,-,CALM,��
2022/03/03,02:10,0.589,0.877,0.555,1.075,0.763,0.354,0.612,0.577,���쓌,0.9,��
2022/03/03,02:20,0.588,0.877,0.554,1.072,0.763,0.353,0.612,0.577,��쓌,1.5,��
2022/03/03,02:30,0.588,0.876,0.555,1.075,0.764,0.353,0.610,0.575,��쓌,2.8,��
2022/03/03,02:40,0.588,0.877,0.553,1.072,0.763,0.352,0.612,0.578,��쓌,3.0,��
2022/03/03,02:50,0.588,0.878,0.555,1.070,0.765,0.351,0.609,0.577,��쓌,3.9,��
2022/03/03,03:00,0.589,0.876,0.554,1.073,0.764,0.352,0.611,0.576,��쓌,3.9,��
2022/03/03,03:10,0.588,0.876,0.556,1.072,0.763,0.353,0.612,0.577,��쓌,4.2,��
2022/03/03,03:20,0.589,0.876,0.554,1.071,0.762,0.352,0.611,0.577,��쓌,4.9,��
2022/03/03,03:30,0.588,0.877,0.554,1.073,0.764,0.352,0.612,0.576,��쓌,5.1,��
2022/03/03,03:40,0.587,0.876,0.554,1.069,0.764,0.353,0.610,0.579,��,5.1,��
2022/03/03,03:50,0.590,0.876,0.554,1.071,0.764,0.352,0.610,0.577,��쓌,6.1,��
2022/03/03,04:00,0.587,0.876,0.554,1.070,0.763,0.352,0.610,0.576,��쓌,5.1,��
2022/03/03,04:10,0.588,0.876,0.551,1.071,0.763,0.352,0.611,0.577,��,4.8,��
2022/03/03,04:20,0.586,0.878,0.554,1.073,0.766,0.351,0.611,0.577,��,4.6,��
2022/03/03,04:30,0.589,0.875,0.554,1.072,0.764,0.351,0.611,0.577,��,4.5,��
2022/03/03,04:40,0.588,0.878,0.555,1.074,0.763,0.353,0.611,0.578,��쓌,3.9,��
2022/03/03,04:50,0.587,0.876,0.555,1.071,0.761,0.351,0.610,0.577,��쓌,3.9,��
2022/03/03,05:00,0.588,0.876,0.554,1.074,0.763,0.350,0.611,0.578,��쓌,3.9,��
2022/03/03,05:10,0.587,0.878,0.554,1.072,0.763,0.352,0.610,0.578,��,3.3,��
2022/03/03,05:20,0.590,0.877,0.553,1.073,0.763,0.352,0.611,0.578,��쓌,2.8,��
2022/03/03,05:30,0.589,0.878,0.553,1.071,0.762,0.352,0.611,0.579,��,3.2,��
2022/03/03,05:40,0.588,0.873,0.554,1.073,0.764,0.351,0.609,0.577,��,4.1,��
2022/03/03,05:50,0.588,0.875,0.553,1.072,0.762,0.352,0.610,0.576,��,4.5,��
2022/03/03,06:00,0.587,0.877,0.553,1.072,0.762,0.352,0.611,0.576,��,5.3,��
2022/03/03,06:10,0.587,0.876,0.554,1.070,0.764,0.352,0.611,0.576,��,5.3,��
2022/03/03,06:20,0.588,0.876,0.554,1.071,0.762,0.352,0.609,0.578,��,6.1,��
2022/03/03,06:30,0.588,0.877,0.553,1.072,0.763,0.352,0.611,0.577,��,6.7,��
2022/03/03,06:40,0.588,0.877,0.555,1.070,0.762,0.352,0.611,0.577,��,6.0,��
2022/03/03,06:50,0.590,0.877,0.555,1.074,0.763,0.351,0.612,0.578,��쓌,5.6,��
2022/03/03,07:00,0.588,0.878,0.553,1.073,0.763,0.352,0.612,0.578,��쓌,6.0,��
2022/03/03,07:10,0.588,0.877,0.554,1.072,0.764,0.352,0.611,0.577,��쓌,6.1,��
2022/03/03,07:20,0.589,0.876,0.553,1.071,0.763,0.352,0.610,0.578,��,6.6,��
2022/03/03,07:30,0.588,0.876,0.554,1.074,0.762,0.351,0.612,0.577,��쓌,8.9,��
2022/03/03,07:40,0.588,0.866,0.554,1.072,0.762,0.350,0.612,0.578,��,9.6,��
2022/03/03,07:50,0.589,0.855,0.554,1.071,0.763,0.350,0.613,0.577,��,7.9,��
2022/03/03,08:00,0.588,0.860,0.554,1.074,0.763,0.352,0.612,0.579,��,5.5,��
2022/03/03,08:10,0.589,0.860,0.556,1.074,0.761,0.351,0.613,0.578,��,4.3,��
2022/03/03,08:20,0.590,0.864,0.555,1.071,0.763,0.351,0.614,0.578,��,4.0,��
2022/03/03,08:30,0.589,0.863,0.555,1.072,0.764,0.351,0.613,0.577,��쐼,3.2,��
2022/03/03,08:40,0.590,0.867,0.556,1.071,0.762,0.351,0.612,0.579,��쓌,1.9,��
2022/03/03,08:50,0.589,0.861,0.555,1.072,0.764,0.351,0.612,0.579,��쓌,4.1,��
2022/03/03,09:00,0.590,0.859,0.556,1.073,0.763,0.351,0.611,0.578,��,6.3,��
2022/03/03,09:10,0.588,0.861,0.556,1.074,0.765,0.353,0.611,0.578,��쓌,5.8,��
2022/03/03,09:20,0.591,0.863,0.554,1.074,0.764,0.352,0.613,0.579,��쐼,6.3,��
2022/03/03,09:30,0.590,0.866,0.556,1.074,0.764,0.353,0.613,0.580,���쐼,8.1,��
2022/03/03,09:40,0.593,0.869,0.555,1.073,0.763,0.354,0.613,0.579,�쐼,8.0,��
2022/03/03,09:50,0.591,0.870,0.558,1.073,0.763,0.353,0.612,0.578,���쐼,7.5,��
2022/03/03,10:00,0.593,0.871,0.558,1.073,0.763,0.352,0.612,0.579,�쐼,8.9,��
2022/03/03,10:10,0.592,0.870,0.555,1.076,0.765,0.355,0.610,0.579,�쐼,9.2,��
2022/03/03,10:20,0.592,0.872,0.557,1.075,0.762,0.353,0.612,0.576,�쐼,7.7,��
2022/03/03,10:30,0.593,0.873,0.555,1.072,0.766,0.352,0.612,0.577,�쐼,10.5,��
2022/03/03,10:40,0.590,0.871,0.555,1.075,0.765,0.353,0.614,0.577,�쐼,7.3,��
2022/03/03,10:50,0.593,0.870,0.556,1.075,0.765,0.353,0.611,0.577,���쐼,8.2,��
2022/03/03,11:00,0.591,0.870,0.556,1.074,0.764,0.352,0.612,0.576,�쐼,6.7,��
2022/03/03,11:10,0.592,0.870,0.556,1.074,0.763,0.351,0.613,0.577,���쐼,10.2,��
2022/03/03,11:20,0.591,0.872,0.556,1.075,0.764,0.351,0.612,0.576,���쐼,11.3,�L
2022/03/03,11:30,0.592,0.870,0.557,1.074,0.764,0.353,0.613,0.576,���쐼,6.9,�L
2022/03/03,11:40,0.593,0.871,0.556,1.073,0.765,0.353,0.613,0.578,�쐼,6.4,��
2022/03/03,11:50,0.593,0.873,0.558,1.079,0.764,0.352,0.612,0.575,���쐼,9.3,��
2022/03/03,12:00,0.593,0.869,0.557,1.076,0.765,0.354,0.614,0.576,���쐼,10.6,�L
2022/03/03,12:10,0.591,0.869,0.557,1.075,0.764,0.354,0.614,0.578,��,9.4,�L
2022/03/03,12:20,0.593,0.872,0.555,1.077,0.764,0.352,0.612,0.577,���쐼,8.1,�L
2022/03/03,12:30,0.591,0.870,0.557,1.075,0.763,0.353,0.612,0.577,��,7.1,�L
2022/03/03,12:40,0.591,0.872,0.557,1.077,0.764,0.354,0.611,0.576,���쐼,9.9,��
2022/03/03,12:50,0.591,0.872,0.558,1.076,0.766,0.354,0.614,0.577,���쐼,10.5,��
2022/03/03,13:00,0.594,0.869,0.558,1.074,0.767,0.355,0.612,0.578,��,10.6,��
2022/03/03,13:10,0.593,0.872,0.559,1.078,0.768,0.354,0.614,0.578,��,9.1,��
2022/03/03,13:20,0.593,0.869,0.559,1.076,0.767,0.355,0.613,0.579,��,10.2,��
2022/03/03,13:30,0.592,0.870,0.559,1.076,0.764,0.354,0.613,0.578,��,8.4,��
2022/03/03,13:40,0.593,0.868,0.558,1.076,0.764,0.355,0.613,0.577,���k��,10.4,��
2022/03/03,13:50,0.593,0.870,0.557,1.077,0.766,0.353,0.613,0.577,��,8.4,��
2022/03/03,14:00,0.591,0.871,0.557,1.076,0.765,0.353,0.614,0.578,��,8.1,��
2022/03/03,14:10,0.592,0.869,0.556,1.076,0.766,0.354,0.613,0.577,���k��,7.5,��
2022/03/03,14:20,0.590,0.869,0.556,1.076,0.764,0.352,0.614,0.578,�k��,2.9,��
2022/03/03,14:30,0.589,0.871,0.557,1.077,0.766,0.353,0.613,0.577,���k��,4.4,��
2022/03/03,14:40,0.590,0.871,0.556,1.079,0.765,0.352,0.613,0.578,�k,4.9,��
2022/03/03,14:50,0.591,0.874,0.555,1.076,0.766,0.352,0.613,0.580,�k,4.1,��
2022/03/03,15:00,0.591,0.874,0.555,1.078,0.765,0.353,0.613,0.578,�k,4.0,��
2022/03/03,15:10,0.592,0.873,0.554,1.079,0.766,0.354,0.612,0.578,�k,3.6,��
2022/03/03,15:20,0.591,0.873,0.555,1.075,0.764,0.354,0.612,0.579,��,3.8,��
2022/03/03,15:30,0.592,0.873,0.556,1.076,0.767,0.353,0.613,0.576,��,6.7,��
2022/03/03,15:40,0.593,0.872,0.556,1.079,0.767,0.355,0.613,0.577,��,10.2,��
2022/03/03,15:50,0.590,0.875,0.556,1.078,0.765,0.354,0.610,0.579,��,10.8,��
2022/03/03,16:00,0.593,0.875,0.555,1.077,0.765,0.354,0.612,0.581,��,7.2,��
2022/03/03,16:10,0.592,0.872,0.556,1.076,0.765,0.355,0.611,0.578,��,7.5,��
2022/03/03,16:20,0.590,0.876,0.555,1.075,0.765,0.354,0.609,0.579,��,5.9,��
2022/03/03,16:30,0.591,0.875,0.556,1.078,0.765,0.354,0.613,0.580,��,6.7,��
2022/03/03,16:40,0.591,0.876,0.555,1.078,0.765,0.354,0.614,0.581,��,7.7,��
2022/03/03,16:50,0.590,0.875,0.555,1.077,0.766,0.353,0.613,0.580,��,8.8,��
2022/03/03,17:00,0.589,0.877,0.556,1.079,0.766,0.354,0.614,0.580,���k��,8.4,��
2022/03/03,17:10,0.592,0.875,0.557,1.075,0.765,0.353,0.613,0.579,���k��,5.7,��
2022/03/03,17:20,0.591,0.875,0.555,1.078,0.764,0.353,0.614,0.581,���k��,5.4,��
2022/03/03,17:30,0.590,0.875,0.559,1.077,0.766,0.354,0.615,0.580,��,3.7,��
2022/03/03,17:40,0.591,0.878,0.557,1.077,0.767,0.353,0.615,0.580,���k��,6.4,��
2022/03/03,17:50,0.590,0.876,0.556,1.075,0.769,0.353,0.613,0.579,���k��,4.0,��
2022/03/03,18:00,0.591,0.877,0.558,1.077,0.767,0.352,0.614,0.580,��,5.5,��
2022/03/03,18:10,0.592,0.877,0.556,1.078,0.769,0.354,0.613,0.580,��,5.6,��
2022/03/03,18:20,0.592,0.877,0.556,1.077,0.768,0.352,0.613,0.580,���k��,2.9,��
2022/03/03,18:30,0.591,0.876,0.557,1.079,0.767,0.354,0.614,0.580,�k��,4.6,��
2022/03/03,18:40,0.592,0.876,0.557,1.077,0.766,0.353,0.614,0.581,�k��,5.7,��
2022/03/03,18:50,0.590,0.875,0.556,1.079,0.767,0.352,0.615,0.580,���k��,4.3,��
2022/03/03,19:00,0.590,0.877,0.556,1.077,0.768,0.352,0.616,0.579,��,2.6,��
2022/03/03,19:10,0.591,0.875,0.556,1.077,0.766,0.352,0.613,0.579,���k��,1.1,��
2022/03/03,19:20,0.590,0.877,0.556,1.078,0.767,0.352,0.614,0.580,�k�k��,2.0,��
2022/03/03,19:30,0.590,0.876,0.556,1.077,0.768,0.354,0.612,0.580,�k��,1.4,��
2022/03/03,19:40,0.591,0.876,0.556,1.077,0.767,0.352,0.613,0.581,�k,2.0,��
2022/03/03,19:50,0.591,0.878,0.559,1.076,0.768,0.353,0.612,0.579,�k,1.5,��
2022/03/03,20:00,0.589,0.877,0.555,1.076,0.767,0.353,0.614,0.580,�k,1.1,��
2022/03/03,20:10,0.590,0.876,0.556,1.078,0.767,0.353,0.612,0.578,�k,0.9,��
2022/03/03,20:20,0.589,0.876,0.556,1.075,0.767,0.352,0.612,0.579,�k,1.2,��
2022/03/03,20:30,0.591,0.875,0.554,1.077,0.768,0.352,0.613,0.580,�k��,1.7,��
2022/03/03,20:40,0.591,0.877,0.555,1.077,0.768,0.353,0.611,0.578,�k��,4.2,��
2022/03/03,20:50,0.589,0.876,0.555,1.078,0.766,0.353,0.612,0.578,�k��,4.0,��
2022/03/03,21:00,0.591,0.875,0.554,1.077,0.766,0.352,0.613,0.578,�k��,3.3,��
2022/03/03,21:10,0.589,0.876,0.554,1.078,0.766,0.352,0.612,0.577,�k��,3.0,��
2022/03/03,21:20,0.589,0.876,0.555,1.076,0.766,0.353,0.613,0.578,���k��,3.0,��
2022/03/03,21:30,0.590,0.874,0.553,1.077,0.766,0.352,0.611,0.579,�k��,2.6,��
2022/03/03,21:40,0.589,0.874,0.554,1.077,0.766,0.351,0.612,0.578,���k��,2.8,��
2022/03/03,21:50,0.590,0.876,0.554,1.075,0.766,0.352,0.613,0.578,���k��,2.3,��
2022/03/03,22:00,0.589,0.875,0.553,1.076,0.766,0.353,0.612,0.578,���k��,1.5,��
2022/03/03,22:10,0.590,0.875,0.556,1.076,0.767,0.351,0.611,0.578,��,2.3,��
2022/03/03,22:20,0.590,0.875,0.554,1.073,0.766,0.352,0.612,0.577,��,3.1,��
2022/03/03,22:30,0.589,0.876,0.554,1.075,0.765,0.350,0.612,0.577,��,3.4,��
2022/03/03,22:40,0.587,0.876,0.554,1.077,0.765,0.351,0.611,0.576,���k��,2.8,��
2022/03/03,22:50,0.588,0.875,0.555,1.076,0.765,0.352,0.612,0.577,��,3.1,��
2022/03/03,23:00,0.588,0.877,0.556,1.076,0.765,0.351,0.611,0.578,���k��,2.0,��
2022/03/03,23:10,0.589,0.875,0.554,1.076,0.765,0.352,0.611,0.577,���k��,1.7,��
2022/03/03,23:20,0.587,0.875,0.555,1.077,0.765,0.352,0.610,0.577,��,2.8,��
2022/03/03,23:30,0.588,0.874,0.555,1.077,0.765,0.351,0.613,0.576,��,2.9,��
2022/03/03,23:40,0.587,0.874,0.555,1.075,0.766,0.352,0.610,0.575,��,3.4,��
2022/03/03,23:50,0.588,0.874,0.554,1.076,0.768,0.353,0.612,0.577,��,3.6,��
